Location: Newark
(50.4348°N, 30.5552°E)
Time: 18:01:42
(UTC+00:00)

Altair - Pass Details

Date: 21 January 2020
Orbit: 1502 x 1682 km, 47.2° (Epoch: 22 February)

Event Time Altitude Azimuth Distance (km) Brightness Sun altitude
Rises 15:46:46 0° 285° (WNW) 4,905 11.2 -11.8°
Reaches altitude 10° 15:52:27 10° 260° (W) 3,880 11.1 -12.7°
Maximum altitude 15:56:11 13° 238° (WSW) 3,630 10.7 -13.2°
Drops below altitude 10° 15:59:53 10° 215° (SW) 3,819 10.3 -13.8°
Sets 16:05:25 0° 189° (S) 4,755 10.4 -14.7°
